STARLINK-37442, 68811

Orbit data source: Space-Track

STARLINK-37442, 68811 is a payload satellite owned by SpaceX/Seattle (US) in SSO that was launched on Thu, 23 Apr 2026 UTC via an FALCON 9 launch vehicle from the Air Force Western Test Range (AFWTR). Payload-class satellites include a variety of spacecraft equipped with specific instruments for various scientific and technological missions. These include communications satellites like Starlink; space stations such as the ISS; scientific satellites like the Hubble; Earth observation satellites from companies like Planet Labs, Umbra, and HawkEye 360; GPS; miniature CubeSats for education and research; and military/defense satellites.

Loading next visibility...
Identifier
68811, 2026-089K
Orbit
SSO
Country
Flag of USUS
Related business
Manufacturer
SpaceX/Seattle
Mission
Operational spacecraft
Bus & Motor
STARLINK V2MO, Unknown motor
Mass
575 kg wet, ~530 kg dry
Launch date (UTC)
2026-04-23 (1 week ago)
Launch vehicle
FALCON 9
Launch site
Air Force Western Test Range (AFWTR)
Object type
Payload
Rocket body
Debris
Shape & HBR
Unknown
Radar Cross Section
RCS unknown

Expand to show TLE details & history
Last TLE update: 7 hours ago

TLE from 7 hours ago
0 STARLINK-37442
1 68811U 26089K   26121.25002315 -.02070470  00000-0 -92915-2 0  9999
2 68811  97.2852 326.6967 0001645  73.4254 340.2335 15.87067111  2514
Epoch: 2026-05-01T06:00Z
TLE epoch observation values (Epoch: 2026-05-01T06:00:02.000Z)
Latitude
53.13646°
Longitude
7.74282°
Altitude
318.241 km
Speed
7.723 km/s
True Right ascension
21h 07m 44s
True Declination
52° 57' 37"
Sunlit
Object was in daylight at epoch
Visualization orbit readout
Latitude
Unknown
Longitude
Unknown
Altitude
Unknown
Speed
Unknown
Apparent Right ascension
Unknown
Apparent Declination
Unknown
Sunlit
N/A
Visualization observer readout
Local Sidereal Time
20:31:06
Azimuth
Unknown
Elevation
Unknown
Doppler factor
Unknown
Orbital elements
Apogee altitude
308.482 km
Perigee altitude
306.283 km
Semi-major axis
6,685.519 km
Eccentricity
0.00016
Inclination
97.2852°
RAAN
326.6967°
Arg. of periapsis
73.4254°
True anomaly
340.22712°
Mean anomaly
340.2335°
Eccentric anomaly
340.23031°
Mean motion
3.97046 °/min
Orbital period
90.67 mins
BSTAR
-0.0092915
Loading maneuver chart data...
Computing Atmospheric mass density...
Loading historical data...
Loading historical data...
Loading historical data...
Loading historical data...
Loading historical data...
Loading historical data...
Loading historical data...

Documentation

Showing up to 5 results
|